Regional Weather Roundup
Issued by NWS Grand Forks, ND

Home | Current Version | Previous Version | Graphics & Text | Print | Product List | Glossary On
Versions: 1 2 3 4 5 6 7 8 9 10 11 12 13 14 15 16 17 18 19 20 21 22 23 24 25 26 27 28 29 30 31 32 33 34 35 36 37 38 39 40 41 42 43 44 45 46 47 48 49 50
579
ASUS43 KFGF 251610
RWRFGF
PRAIRIE TO PINES  WEATHER ROUNDUP
NATIONAL WEATHER SERVICE EASTERN NORTH DAKOTA/GRAND FORKS ND
1100 AM CDT TUE APR 25 2017

 **SATELLITE DATA USED TO AUGMENT SKY COVER AT AUTOMATED STATIONS**
 *****  WEATHER ACROSS EASTERN NORTH DAKOTA  *****

CITY           SKY/WX    TMP DP  RH WIND       PRES   REMARKS
GRAND FORKS    CLOUDY    34  28  79 N26G35    29.81R WCI  21
GRAND FRKS AFB CLOUDY    31  26  82 NE25G32   29.82R WCI  18
DEVILS LAKE    CLOUDY    29  24  82 NE23G29   29.86R WCI  15
FARGO          CLOUDY    35  31  85 N24G32    29.72F WCI  23
WAHPETON ARPT  CLOUDY    34  32  93 N18G26    29.69S WCI  23
$$

 ***** WEATHER ACROSS CENTRAL AND WESTERN NORTH DAKOTA  *****

CITY           SKY/WX    TMP DP  RH WIND       PRES   REMARKS
BISMARCK       CLOUDY    31  26  82 NE18      29.88R WCI  19
MINOT          CLOUDY    32  25  75 N17       29.91R WCI  21
JAMESTOWN      CLOUDY    31  27  85 N23G33    29.76F WCI  18
MINOT AFB      CLOUDY    31  23  73 NE18      29.91R WCI  19
GARRISON         N/A     29  22  75 NE12G22   29.89R WCI  19
WILLISTON      CLOUDY    33  22  63 NE15      29.96R WCI  23
DICKINSON      CLOUDY    25  23  92 N15       29.85R WCI  13
HETTINGER      CLOUDY    26  24  92 NE17      29.82F WCI  13
$$

 *****  OTHER AIRPORT OBSERVATIONS IN OUR AREA  *****

CITY           SKY/WX    TMP DP  RH WIND       PRES   REMARKS
WALHALLA       NOT AVBL
GRAFTON AIRPOR CLOUDY    32  28  86 N21G29    29.87R WCI  20
VALLEY CITY AR FLURRIES  30  32 100 N25G35    29.76F WCI  16
CANDO          NOT AVBL
CAVALIER APRT  CLOUDY    30  25  80 N21G29    29.87R WCI  17
GWINNER        CLOUDY    34  30  86 MISG      29.73R
ROLLA          CLOUDY    28  25  86 NE26G33   29.88S WCI  13
 ***** THE ABOVE OBSERVATIONS ARE NON NWS ARE NOT QUALITY
       CONTROLLED AND MAY MIS-REPORT RAIN FOR SNOW...
$$

  *****  WEATHER ACROSS NORTHERN MINNESOTA  *****

CITY           SKY/WX    TMP DP  RH WIND       PRES   REMARKS
FLAG ISLAND    CLOUDY    28  25  86 NE21      29.84R WCI  15
WARROAD        CLOUDY    30  27  86 NE21      29.82F WCI  17
ROSEAU         CLOUDY    30  27  86 N21       29.82S WCI  17
HALLOCK        CLOUDY    32  27  80 N21       29.85R WCI  20
THF RVR FALLS  CLOUDY    31  28  89 N18G26    29.78S WCI  19
BAUDETTE       CLOUDY    31  27  85 NE14G20   29.78R WCI  21
WASKISH        CLOUDY    32  32 100 N13       29.74R WCI  22
CROOKSTON      CLOUDY    34  28  80 N22G29    29.79F WCI  22
STEPHEN NDAWN    N/A     30  27  86 N20         N/A  WCI  18
GREENBUSH NDAW   N/A     28  27  93 NE17        N/A  WCI  16
$$
  *****  WEATHER ACROSS CENTRAL AND WEST MINNESOTA  *****

CITY           SKY/WX    TMP DP  RH WIND       PRES   REMARKS
FOSSTON        CLOUDY    34  34 100 N15G23    29.73R WCI  24
BEMIDJI        CLOUDY    33  33  99 N15G21    29.71R WCI  23
PARK RAPIDS    CLOUDY    40  33  76 N15G22    29.65R
ELBOW LAKE     CLOUDY    39  38  93 N15       29.65R
WADENA         CLOUDY    39  36  87 N16       29.63R
DETROIT LAKES  CLOUDY    36  36 100 N12G17    29.68S
MOORHEAD       CLOUDY    36  30  80 N25G31    29.72F
FERGUS FALLS   CLOUDY    37  37 100 NE13G18   29.66S
MORRIS MN      CLOUDY    41  37  87 N16G22    29.62S
STAPLES        CLOUDY    43  37  81 N14       29.62R
$$
  *****  WEATHER ELSEWHERE ACROSS MINNESOTA  *****

CITY           SKY/WX    TMP DP  RH WIND       PRES   REMARKS
DULUTH         FAIR      53  41  63 E12       29.59R
INTRNTL FALLS  CLOUDY    32  28  85 N13       29.74R WCI  22
ELY            CLOUDY    43  39  87 N6        29.64R
CLOQUET        FAIR      50  39  66 NE5       29.59R
WHEATON        CLOUDY    36  34  93 NW18G25   29.70R
BRAINERD       FAIR      49  40  71 N12       29.61R
HIBBING        PTSUNNY   45  41  86 NE14      29.63R
ALEXANDRIA     CLOUDY    43  40  89 N14       29.62R
SAINT CLOUD    FAIR      53  44  71 N10       29.56R
MINNEAPOLIS    CLOUDY    57  46  66 SW6       29.55R
$$

  *****  WEATHER ACROSS SOUTH DAKOTA  *****

CITY           SKY/WX    TMP DP  RH WIND       PRES   REMARKS
SIOUX FALLS    CLOUDY    42  38  85 N13       29.61F
BROOKINGS      CLOUDY    37  34  87 N14       29.64S
WATERTOWN      CLOUDY    35  34  96 N16       29.65R FOG
HURON          CLOUDY    37  33  85 N20       29.71R
SISSETON         N/A     35  33  92 N18       29.70R WCI  24
ABERDEEN       CLOUDY    34  28  79 N17       29.75R WCI  23
MITCHELL       CLOUDY    38  34  85 N16       29.68F
PIERRE         CLOUDY    35  30  82 N16       29.73F
MOBRIDGE       CLOUDY    33  28  81 N13       29.78R WCI  24
RAPID CITY     LGT SNOW  30  28  92 N14       29.73R VSB 3/4 WCI  19
$$

  *****  SOME WEATHER IN NEARBY STATES *****

CITY           SKY/WX    TMP DP  RH WIND       PRES   REMARKS
GLASGOW MT     CLOUDY    32  25  75 E9        29.94R WCI  24
GREAT FALLS MT CLOUDY    40  37  89 E6        29.80S
CHEYENNE WY    FAIR      46  23  40 NW17G23   29.60R
SCOTTSBLUFF NE FAIR      54  39  57 NW13      29.54F
OMAHA NE       CLOUDY    51  42  71 N16       29.49F
DES MOINES IA  CLOUDY    60  46  59 S3        29.53R
DAVENPORT IA   FAIR      69  44  40 S12       29.61S
CHICAGO IL     PTSUNNY   71  47  42 S13       29.69S
EAU CLAIRE WI  PTSUNNY   68  38  33 S8        29.54F
LA CROSSE WI   FAIR      70  42  36 S9        29.55F
$$

  *****  SOME NATIONAL WEATHER *****

CITY           SKY/WX    TMP DP  RH WIND       PRES   REMARKS
LA GUARDIA NY  CLOUDY    56  51  84 NE29G35   30.07F
RALEIGH NC     PTSUNNY   65  59  81 CALM      29.65R
ATLANTA GA     PTSUNNY   68  56  65 NW16      29.80R
NEW ORLEANS LA FAIR      73  56  54 S9        29.84F
OKLAHOMA CITY  FAIR      76  56  50 SW25G33   29.39S
ALBUQUERQUE NM LGT RAIN  47  44  90 SW10      29.75F FOG
SALT LAKE CITY LGT RAIN  40  38  93 N15       29.82R FOG
LOS ANGELES CA PTSUNNY   69  41  36 NW14G20   29.89R
BOISE ID       FAIR      46  35  65 NW17G23   29.93S
SEATTLE WA     PTSUNNY   50  44  80 S10       29.96F
$$

*** WEATHER ACROSS MANITOBA...SASKATCHEWAN AND ONTARIO ***
                ***ONTARIO***

CITY           SKY/WX    TMP DP  RH WIND       PRES   REMARKS
GERALDTON      CLOUDY    30  27  86 NE13      29.82R WCI  20
THUNDER BAY    LGT RAIN  41  39  93 NE14      29.70R
SIOUX LOOKOUT  FLURRIES  25  19  80 NE8G17    29.86R WCI  16
TORONTO        LGT RAIN  48  46  93 E14G20    30.00F
BIG TROUT LK   SUNNY     23   5  46 E12G20    30.21S WCI  12
PICKLE LAKE    LGT SNOW  21  16  79 NE14G24   29.94F DRFTSNOWWCI   8
DRYDEN         CLOUDY    25  21  86 NE12G20   29.84R WCI  14
KENORA         CLOUDY    25  21  86 NE15G24   29.85R WCI  12
$$
                *** MANITOBA***

CITY           SKY/WX    TMP DP  RH WIND       PRES   REMARKS
BRANDON        MOSUNNY   34  21  60 NE24G31   29.97S WCI  21
DAUPHIN        SUNNY     32  16  51 N16G22    30.08R WCI  21
ISLAND LAKE    SUNNY     23   5  46 NE8G23    30.22S WCI  14
PILOT MOUND      N/A     28  23  80 N21G29      N/A  WCI  15
THE PAS        PTSUNNY   25   5  42 NE6G17    30.23S WCI  18
THOMPSON       SUNNY     16  -4  41 E8        30.34F WCI   5
WINNIPEG       CLOUDY    32  23  69 NE22G32   29.94R WCI  19
LYNN LAKE      SUNNY     21   3  45 SE8       30.26F WCI  12
CHURCHILL      FLURRIES   3   0  85 VRB2      30.48S
GILLAM         SUNNY      9  -6  52 NE9       30.41F WCI  -5
$$
                ***SASKATCHEWAN***

CITY           SKY/WX    TMP DP  RH WIND       PRES   REMARKS
ESTEVAN        MOSUNNY   32  21  64 NE14G20   29.97R WCI  22
KINDERSLEY     CLOUDY    30  23  74 SE15      29.97R WCI  19
LLOYDMINSTER   LGT SNOW  28  27  93 E15       30.00R WCI  17
PRINCE ALBERT  PTSUNNY   32  14  47 E13       30.12S WCI  22
REGINA         CLOUDY    28  18  64 E9        30.03R WCI  20
YORKTON        SUNNY     30  18  59 NE12G18   30.06S WCI  21
N. BATTLEFORD  FLURRIES  32  25  74 E14       30.07R WCI  22
LA RONGE       PTSUNNY   30   9  40 SE7       30.19S WCI  23
SASKATOON      PTSUNNY   32  23  69 SE10      30.08R WCI  24
SWIFT CURRENT  CLOUDY    27  27 100 E12G18    29.95R WCI  16
$$
NOTE: THESE ARE AUTOMATED STATIONS WITH LIMITED QUALITY CONTROL
      "FAIR" INDICATES FEW OR NO CLOUDS BELOW 12,000 FEET WITH NO
      SIGNIFICANT WEATHER AND/OR OBSTRUCTIONS TO VISIBILITY.
      SKY/WX - SKY CONDITION AND SIGNIFICANT WEATHER.
      TMP - AIR TEMPERATURE.    DP   - DEWPOINT TEMPERATURE.
      RH  - RELATIVE HUMIDITY.  PRES - PRESSURE.
      HX  - HEAT INDEX.         WCI  - WIND CHILL INDEX.
$




USA.gov is the U.S. government's official web portal to all federal, state and local government web resources and services.